| time (UTC) | temp F | wind direction | speed MPH | gust MPH | rain 1hr in | rain 24hr in | rain mn in | humidity % | barometer mb |
| 20260902104501 | 83 | 166 | 0.0 | 7.0 | 0.00 | 0.00 | 0.00 | 74 | 1018.8 |
| 20260902103105 | 82 | 134 | 0.0 | 1.0 | 0.00 | 0.00 | 0.00 | 74 | 1018.7 |
| 20260902101559 | 82 | 113 | 0.0 | 4.0 | 0.00 | 0.00 | 0.00 | 74 | 1018.8 |
| 20260902100106 | 82 | 166 | 0.0 | 0.0 | 0.00 | 0.00 | 0.00 | 75 | 1018.9 |
| 20260902094555 | 82 | 168 | 0.0 | 2.0 | 0.00 | 0.00 | 0.00 | 75 | 1018.7 |
| 20260902093055 | 81 | 135 | 0.0 | 11.0 | 0.00 | 0.00 | 0.00 | 76 | 1018.9 |
| 20260902091554 | 81 | 232 | 0.0 | 0.0 | 0.00 | 0.00 | 0.00 | 75 | 1018.7 |
| 20260902090050 | 81 | 146 | 0.0 | 0.0 | 0.00 | 0.00 | 0.00 | 74 | 1018.4 |
| 20260902084545 | 80 | 224 | 0.0 | 0.0 | 0.00 | 0.00 | 0.00 | 76 | 1018.2 |
| 20260902083041 | 80 | 152 | 0.0 | 0.0 | 0.00 | 0.00 | 0.00 | 76 | 1018.1 |
| 20260902081539 | 79 | 154 | 0.0 | 0.0 | 0.00 | 0.00 | 0.00 | 77 | 1017.9 |
| 20260902080036 | 78 | 131 | 0.0 | 0.0 | 0.00 | 0.00 | 0.00 | 78 | 1017.7 |
| 20260902074538 | 78 | 141 | 0.0 | 0.0 | 0.00 | 0.00 | 0.00 | 79 | 1017.7 |
| 20260902073028 | 77 | 170 | 0.0 | 0.0 | 0.00 | 0.00 | 0.00 | 81 | 1017.6 |
| 20260902071524 | 76 | 139 | 0.0 | 0.0 | 0.00 | 0.00 | 0.00 | 83 | 1017.4 |
| 20260902070021 | 75 | 133 | 0.0 | 0.0 | 0.00 | 0.00 | 0.00 | 84 | 1017.4 |
| 20260902064519 | 73 | 352 | 0.0 | 0.0 | 0.00 | 0.00 | 0.00 | 86 | 1017.2 |
| 20260902063032 | 72 | 352 | 0.0 | 0.0 | 0.00 | 0.00 | 0.00 | 85 | 1017.0 |
| 20260902061522 | 72 | 352 | 0.0 | 0.0 | 0.00 | 0.00 | 0.00 | 84 | 1016.9 |
| 20260902060013 | 0 | 0.0 | 0.0 | 0.00 | 0.00 | 0.00 | 1016.8 | ||
| 20260902054512 | 0 | 0.0 | 0.0 | 0.00 | 0.00 | 0.00 | 1016.7 | ||
| 20260902053004 | 0 | 0.0 | 0.0 | 0.00 | 0.00 | 0.00 | 1016.5 | ||
| 20260902051605 | 0 | 0.0 | 0.0 | 0.00 | 0.00 | 0.00 | 1016.4 | ||
| 20260902044553 | 0 | 0.0 | 0.0 | 0.00 | 0.00 | 0.00 | 1016.3 | ||
| 20260902043050 | 0 | 0.0 | 0.0 | 0.00 | 0.00 | 0.00 | 1016.2 | ||
| 20260902041543 | 0 | 0.0 | 0.0 | 0.00 | 0.00 | 0.00 | 1016.3 | ||
| 20260902040039 | 0 | 0.0 | 0.0 | 0.00 | 0.00 | 0.00 | 1016.4 | ||
| 20260902034536 | 71 | 347 | 0.0 | 0.0 | 0.00 | 0.00 | 0.00 | 84 | 1016.5 |
| 20260902033032 | 71 | 330 | 0.0 | 0.0 | 0.00 | 0.00 | 0.00 | 85 | 1016.5 |
| 20260902031531 | 72 | 330 | 0.0 | 0.0 | 0.00 | 0.00 | 0.00 | 85 | 1016.6 |
| 20260902030030 | 72 | 321 | 0.0 | 0.0 | 0.00 | 0.00 | 0.00 | 86 | 1016.6 |
| 20260902024528 | 72 | 321 | 0.0 | 0.0 | 0.00 | 0.00 | 0.00 | 86 | 1016.6 |
| 20260902023027 | 72 | 20 | 0.0 | 0.0 | 0.00 | 0.00 | 0.00 | 86 | 1016.6 |
| 20260902021525 | 73 | 23 | 0.0 | 0.0 | 0.00 | 0.00 | 0.00 | 87 | 1016.7 |
| 20260902020025 | 73 | 23 | 0.0 | 0.0 | 0.00 | 0.00 | 0.00 | 87 | 1016.6 |
| 20260902014523 | 73 | 23 | 0.0 | 0.0 | 0.00 | 0.00 | 0.00 | 87 | 1016.7 |
| 20260902013022 | 73 | 23 | 0.0 | 0.0 | 0.00 | 0.00 | 0.00 | 87 | 1016.8 |
| 20260902011524 | 73 | 21 | 0.0 | 0.0 | 0.00 | 0.00 | 0.00 | 88 | 1016.9 |
| 20260902010019 | 73 | 23 | 0.0 | 0.0 | 0.00 | 0.00 | 0.00 | 87 | 1016.9 |
| 20260902004519 | 73 | 23 | 0.0 | 0.0 | 0.00 | 0.00 | 0.00 | 87 | 1017.0 |
| 20260902003025 | 74 | 23 | 0.0 | 0.0 | 0.00 | 0.00 | 0.00 | 86 | 1017.0 |
| 20260902001515 | 74 | 23 | 0.0 | 0.0 | 0.00 | 0.00 | 0.00 | 85 | 1017.0 |
| 20260902000014 | 75 | 23 | 0.0 | 0.0 | 0.00 | 0.00 | 0.00 | 85 | 1017.2 |
| 20260901234514 | 75 | 23 | 0.0 | 0.0 | 0.00 | 0.00 | 0.00 | 85 | 1017.0 |
| 20260901233012 | 75 | 23 | 0.0 | 0.0 | 0.00 | 0.00 | 0.00 | 85 | 1016.9 |
| 20260901231517 | 75 | 23 | 0.0 | 0.0 | 0.00 | 0.00 | 0.00 | 85 | 1016.9 |
| 20260901230011 | 75 | 20 | 0.0 | 0.0 | 0.00 | 0.00 | 0.00 | 86 | 1016.9 |
| 20260901224509 | 75 | 33 | 0.0 | 0.0 | 0.00 | 0.00 | 0.00 | 85 | 1016.9 |
| 20260901223004 | 75 | 33 | 0.0 | 0.0 | 0.00 | 0.00 | 0.00 | 85 | 1017.0 |
| 20260901221559 | 75 | 33 | 0.0 | 0.0 | 0.00 | 0.00 | 0.00 | 85 | 1017.1 |
| 20260901220116 | 75 | 33 | 0.0 | 0.0 | 0.00 | 0.00 | 0.00 | 85 | 1017.1 |
| 20260901214553 | 76 | 33 | 0.0 | 0.0 | 0.00 | 0.00 | 0.00 | 85 | 1017.0 |
| 20260901213052 | 76 | 33 | 0.0 | 0.0 | 0.00 | 0.00 | 0.00 | 85 | 1017.0 |
| 20260901211553 | 76 | 217 | 0.0 | 0.0 | 0.00 | 0.00 | 0.00 | 84 | 1016.9 |
| 20260901210052 | 77 | 217 | 0.0 | 0.0 | 0.00 | 0.00 | 0.00 | 84 | 1016.8 |
| 20260901204551 | 77 | 217 | 0.0 | 0.0 | 0.00 | 0.00 | 0.00 | 84 | 1016.9 |
| 20260901203054 | 77 | 217 | 0.0 | 0.0 | 0.00 | 0.00 | 0.00 | 84 | 1016.8 |
| 20260901201558 | 78 | 217 | 0.0 | 0.0 | 0.00 | 0.00 | 0.00 | 84 | 1016.5 |
| 20260901200050 | 78 | 217 | 0.0 | 0.0 | 0.00 | 0.00 | 0.00 | 84 | 1016.5 |
| 20260901194553 | 78 | 217 | 0.0 | 0.0 | 0.00 | 0.00 | 0.00 | 84 | 1016.3 |
| 20260901193050 | 78 | 205 | 0.0 | 0.0 | 0.00 | 0.00 | 0.00 | 84 | 1015.9 |
| 20260901191605 | 79 | 194 | 0.0 | 0.0 | 0.00 | 0.00 | 0.00 | 83 | 1015.7 |
| 20260901190048 | 79 | 236 | 0.0 | 0.0 | 0.00 | 0.00 | 0.00 | 83 | 1015.7 |
| 20260901184609 | 79 | 214 | 0.0 | 0.0 | 0.00 | 0.00 | 0.00 | 82 | 1015.5 |
| 20260901183053 | 80 | 153 | 0.0 | 0.0 | 0.00 | 0.00 | 0.00 | 82 | 1015.4 |
| 20260901181557 | 80 | 187 | 0.0 | 0.0 | 0.00 | 0.00 | 0.00 | 79 | 1015.3 |
| 20260901180047 | 81 | 174 | 0.0 | 0.0 | 0.00 | 0.00 | 0.00 | 78 | 1015.2 |
| 20260901174555 | 81 | 153 | 0.0 | 0.0 | 0.00 | 0.00 | 0.00 | 76 | 1015.2 |
| 20260901173046 | 82 | 158 | 0.0 | 0.0 | 0.00 | 0.00 | 0.00 | 75 | 1015.1 |
| 20260901171544 | 82 | 211 | 0.0 | 0.0 | 0.00 | 0.00 | 0.00 | 74 | 1015.2 |
| 20260901170043 | 83 | 160 | 0.0 | 0.0 | 0.00 | 0.00 | 0.00 | 71 | 1015.2 |
| 20260901164543 | 84 | 208 | 0.0 | 1.0 | 0.00 | 0.00 | 0.00 | 68 | 1015.2 |
| 20260901163041 | 84 | 147 | 0.0 | 1.0 | 0.00 | 0.00 | 0.00 | 64 | 1015.4 |
| 20260901161555 | 84 | 152 | 0.0 | 0.0 | 0.00 | 0.00 | 0.00 | 67 | 1015.5 |
| 20260901160101 | 83 | 121 | 0.0 | 0.0 | 0.00 | 0.00 | 0.00 | 70 | 1015.5 |
| 20260901154539 | 82 | 124 | 0.0 | 0.0 | 0.00 | 0.00 | 0.00 | 71 | 1015.5 |
| 20260901153038 | 81 | 147 | 0.0 | 0.0 | 0.00 | 0.00 | 0.00 | 73 | 1015.9 |
| 20260901151538 | 81 | 145 | 0.0 | 0.0 | 0.00 | 0.00 | 0.00 | 76 | 1016.4 |
| 20260901150037 | 81 | 129 | 0.0 | 4.0 | 0.00 | 0.00 | 0.00 | 77 | 1015.5 |
| 20260901144536 | 81 | 150 | 0.0 | 3.0 | 0.00 | 0.00 | 0.00 | 77 | 1015.8 |
| 20260901143038 | 82 | 156 | 0.0 | 4.0 | 0.00 | 0.00 | 0.00 | 73 | 1015.8 |
| 20260901141540 | 83 | 222 | 0.0 | 4.0 | 0.00 | 0.00 | 0.00 | 68 | 1016.7 |
| 20260901140039 | 83 | 160 | 0.0 | 0.0 | 0.00 | 0.00 | 0.00 | 70 | 1016.6 |
| 20260901134536 | 83 | 255 | 0.0 | 0.0 | 0.00 | 0.00 | 0.00 | 71 | 1017.0 |
| 20260901133032 | 82 | 257 | 0.0 | 0.0 | 0.00 | 0.00 | 0.00 | 74 | 1017.2 |
| 20260901131530 | 82 | 199 | 0.0 | 0.0 | 0.00 | 0.00 | 0.00 | 75 | 1017.1 |
| 20260901130031 | 83 | 194 | 0.0 | 7.0 | 0.00 | 0.00 | 0.00 | 73 | 1017.1 |
| 20260901124534 | 83 | 280 | 0.0 | 5.0 | 0.00 | 0.00 | 0.00 | 73 | 1017.2 |
| 20260901123043 | 82 | 194 | 0.0 | 7.0 | 0.00 | 0.00 | 0.00 | 74 | 1017.3 |
| 20260901121528 | 83 | 158 | 0.0 | 4.0 | 0.00 | 0.00 | 0.00 | 72 | 1016.6 |
| 20260901120041 | 83 | 146 | 0.0 | 6.0 | 0.00 | 0.00 | 0.00 | 72 | 1017.1 |
| 20260901114526 | 84 | 202 | 0.0 | 4.0 | 0.00 | 0.00 | 0.00 | 70 | 1017.3 |
| 20260901113027 | 84 | 166 | 0.0 | 3.0 | 0.00 | 0.00 | 0.00 | 69 | 1017.6 |
| 20260901111528 | 83 | 177 | 0.0 | 4.0 | 0.00 | 0.00 | 0.00 | 70 | 1017.7 |
| 20260901110022 | 83 | 255 | 0.0 | 1.0 | 0.00 | 0.00 | 0.00 | 70 | 1017.8 |